TimeEST,TemperatureF,Dew PointF,Humidity,Sea Level PressureIn,VisibilityMPH,Wind Direction,Wind SpeedMPH,Gust SpeedMPH,PrecipitationIn,Events,Conditions,WindDirDegrees,DateUTC
12:53 AM,68.0,62.1,81,30.27,10.0,Calm,Calm,-,N/A,,Clear,0,2012-11-12 05:53:00
1:53 AM,64.9,62.1,90,30.27,10.0,Calm,Calm,-,N/A,,Overcast,0,2012-11-12 06:53:00
2:53 AM,66.9,64.0,90,30.26,5.0,Calm,Calm,-,0.02,Rain,Light Rain,0,2012-11-12 07:53:00
3:36 AM,66.2,64.4,94,30.26,2.5,South,3.5,-,0.08,Rain,Light Rain,170,2012-11-12 08:36:00
3:44 AM,66.2,64.4,94,30.26,9.0,South,3.5,-,0.08,Rain,Light Rain,180,2012-11-12 08:44:00
3:53 AM,66.9,64.9,93,30.25,10.0,Calm,Calm,-,0.08,,Overcast,0,2012-11-12 08:53:00
4:53 AM,66.9,64.9,93,30.25,2.5,Calm,Calm,-,0.02,Rain,Light Rain,0,2012-11-12 09:53:00
5:03 AM,66.2,64.4,94,30.25,8.0,Calm,Calm,-,0.00,,Overcast,0,2012-11-12 10:03:00
5:53 AM,64.9,63.0,93,30.25,4.0,Calm,Calm,-,0.00,,Overcast,0,2012-11-12 10:53:00
6:01 AM,66.2,64.4,94,30.25,4.0,Calm,Calm,-,0.00,Rain,Light Rain,0,2012-11-12 11:01:00
6:34 AM,64.4,62.6,94,30.25,1.8,Calm,Calm,-,0.00,Rain,Light Rain,0,2012-11-12 11:34:00
6:41 AM,64.4,62.6,94,30.25,0.5,Calm,Calm,-,0.00,Fog-Rain,Light Rain,0,2012-11-12 11:41:00
6:48 AM,64.4,62.6,94,30.25,3.0,Calm,Calm,-,0.00,Fog,Patches of Fog,0,2012-11-12 11:48:00
6:53 AM,64.0,63.0,96,30.25,3.0,Calm,Calm,-,0.00,Fog,Patches of Fog,0,2012-11-12 11:53:00
7:53 AM,66.9,64.9,93,30.27,9.0,SE,4.6,-,0.01,,Overcast,130,2012-11-12 12:53:00
8:53 AM,70.0,66.0,87,30.29,10.0,ESE,3.5,-,N/A,,Overcast,110,2012-11-12 13:53:00
9:53 AM,75.0,66.0,73,30.29,10.0,SE,5.8,-,N/A,,Mostly Cloudy,140,2012-11-12 14:53:00
10:53 AM,75.9,64.9,69,30.28,10.0,SSE,6.9,-,N/A,,Overcast,160,2012-11-12 15:53:00
11:53 AM,77.0,64.0,64,30.26,10.0,South,8.1,-,N/A,,Overcast,170,2012-11-12 16:53:00
12:53 PM,77.0,63.0,62,30.25,10.0,SE,9.2,-,0.00,,Overcast,130,2012-11-12 17:53:00
1:53 PM,75.9,63.0,64,30.22,10.0,ESE,10.4,-,N/A,,Overcast,110,2012-11-12 18:53:00
2:53 PM,75.0,64.0,69,30.22,10.0,ESE,9.2,-,N/A,,Mostly Cloudy,110,2012-11-12 19:53:00
3:04 PM,73.4,64.4,73,30.22,1.8,South,11.5,-,0.05,Rain,Heavy Rain,170,2012-11-12 20:04:00
3:53 PM,70.0,64.9,84,30.21,10.0,East,8.1,-,0.19,,Overcast,100,2012-11-12 20:53:00
4:53 PM,70.0,66.0,87,30.21,10.0,ESE,3.5,-,N/A,,Overcast,110,2012-11-12 21:53:00
5:53 PM,69.1,66.0,90,30.20,10.0,ESE,3.5,-,N/A,,Overcast,110,2012-11-12 22:53:00
6:53 PM,68.0,64.9,90,30.22,8.0,Calm,Calm,-,N/A,,Clear,0,2012-11-12 23:53:00
7:53 PM,66.0,64.0,93,30.22,8.0,Calm,Calm,-,N/A,,Partly Cloudy,0,2012-11-13 00:53:00
8:05 PM,64.4,62.6,94,30.23,1.8,Calm,Calm,-,N/A,,Scattered Clouds,0,2012-11-13 01:05:00
8:25 PM,64.4,62.6,94,30.23,7.0,Calm,Calm,-,N/A,,Mostly Cloudy,0,2012-11-13 01:25:00
8:53 PM,63.0,62.1,97,30.22,4.0,Calm,Calm,-,N/A,,Overcast,0,2012-11-13 01:53:00
9:20 PM,64.4,62.6,94,30.22,4.0,Calm,Calm,-,N/A,,Scattered Clouds,0,2012-11-13 02:20:00
9:53 PM,64.0,63.0,96,30.22,4.0,Calm,Calm,-,N/A,,Partly Cloudy,0,2012-11-13 02:53:00
10:50 PM,62.6,62.6,100,30.21,7.0,Calm,Calm,-,0.01,,Partly Cloudy,0,2012-11-13 03:50:00
10:53 PM,63.0,62.1,97,30.21,7.0,Calm,Calm,-,0.01,,Partly Cloudy,0,2012-11-13 03:53:00
11:00 PM,62.6,60.8,94,30.21,1.8,Calm,Calm,-,N/A,,Partly Cloudy,0,2012-11-13 04:00:00
11:05 PM,62.6,62.6,100,30.21,0.8,Calm,Calm,-,N/A,,Mist,0,2012-11-13 04:05:00
11:13 PM,62.6,62.6,100,30.20,0.2,Calm,Calm,-,N/A,Fog,Fog,0,2012-11-13 04:13:00
11:33 PM,60.8,60.8,100,30.20,0.2,Calm,Calm,-,N/A,Fog,Fog,0,2012-11-13 04:33:00
11:36 PM,60.8,60.8,100,30.20,0.5,Calm,Calm,-,N/A,Fog,Fog,0,2012-11-13 04:36:00
11:53 PM,61.0,60.1,97,30.20,0.5,Calm,Calm,-,N/A,Fog,Fog,0,2012-11-13 04:53:00